This is the latest recevied weather packets stored in our database for station/object NK7E-2. If no packets are shown the sender has not sent any weather packets the latest 10 day(s).
| Time | Temp. | Humidity | Pressure | Rain* | Wind** | Luminosity | Snow |
|---|---|---|---|---|---|---|---|
| 1777347917 | 20° C | 17% | 1020 hPa | 0 mm | - | - | - |
| 1777347317 | 20.56° C | 16% | 1019.7 hPa | 0 mm | - | - | - |
| 1777346717 | 20.56° C | 16% | 1019.6 hPa | 0 mm | - | - | - |
| 1777346117 | 20.56° C | 16% | 1019.1 hPa | 0 mm | - | - | - |
| 1777345517 | 20.56° C | 16% | 1019.1 hPa | 0 mm | - | - | - |
| 1777344917 | 21.11° C | 16% | 1018.9 hPa | 0 mm | - | - | - |
| 1777343717 | 21.67° C | 15% | 1018.2 hPa | 0 mm | - | - | - |
| 1777343117 | 22.22° C | 15% | 1018.1 hPa | 0 mm | - | - | - |
| 1777342517 | 22.22° C | 15% | 1018 hPa | 0 mm | - | - | - |
| 1777341917 | 22.78° C | 14% | 1017.7 hPa | 0 mm | - | - | - |
| 1777341317 | 22.78° C | 14% | 1017.6 hPa | 0 mm | - | - | - |
| 1777340717 | 23.33° C | 13% | 1017.7 hPa | 0 mm | - | - | - |
| 1777340117 | 23.33° C | 13% | 1017.5 hPa | 0 mm | - | - | - |
| 1777339517 | 24.44° C | 13% | 1017.5 hPa | 0 mm | - | - | - |
| 1777338917 | 25° C | 13% | 1017.5 hPa | 0 mm | - | - | - |
| 1777338317 | 25.56° C | 12% | 1017.3 hPa | 0 mm | - | - | - |
| 1777337117 | 25.56° C | 13% | 1017.7 hPa | 0 mm | - | - | - |
| 1777336517 | 25.56° C | 12% | 1017.7 hPa | 0 mm | - | - | - |
| 1777335917 | 25.56° C | 11% | 1017.8 hPa | 0 mm | - | - | - |
| 1777335317 | 25.56° C | 12% | 1017.8 hPa | 0 mm | - | - | - |
* Rain latest hour (hover to see other rain measurements)
** Current wind speed in m/s (hover to see current wind gust speed)